Weather observations for the past three days for
Hillsville
Metric (Imperial)
Date Time (edt) Wind (kph) Vis. (km) Weather Sky Cond. Temperature (ºC) Relative Humidity Wind Chill (°C) Heat Index (°C) Pressure Precipitation (cm)
Air Dwpt 6 hour altimeter (cm) sea level (mb) 1 hr 3 hr 6 hr
Max. Min.
05 21:15 S 11 16.09 Overcast BKN100 OVC120 17 6 49% 76.1 0.0
05 20:55 S 11 16.09 Partly Cloudy SCT120 17 6 49% 76.1 0.0
05 20:35 S 11 16.09 Fair CLR 17 6 49% 76.1 0.0
05 20:15 S 13 16.09 Fair CLR 18 6 46% 76.1 0.0
05 19:55 S 13 16.09 Fair CLR 18 6 46% 76.1 0.0
05 19:35 S 17 G 31 16.09 Fair CLR 19 5 40% 76.1 0.0
05 19:15 S 24 G 35 16.09 Fair CLR 19 6 43% 76.07 0.0
05 18:55 S 17 G 43 16.09 Fair CLR 20 6 40% 76.05 0.0
05 18:35 S 20 G 35 16.09 Fair CLR 21 6 38% 76.05 0.0
05 18:15 S 22 G 35 16.09 Fair CLR 20 5 38% 76.07 0.0
05 17:55 S 19 G 39 16.09 Fair CLR 21 6 38% 76.05 0.0
05 17:35 S 22 G 33 16.09 Fair CLR 21 5 35% 76.07 0.0
05 17:15 SW 26 G 39 16.09 Fair CLR 21 5 35% 76.07 0.0
05 16:55 S 22 G 41 16.09 Fair CLR 21 4 33% 76.07 0.0
05 16:35 S 26 G 46 16.09 Fair CLR 21 4 33% 76.07 0.0
05 16:15 S 17 G 37 16.09 Fair CLR 21 6 38% 76.07 0.0
05 15:55 S 22 G 37 16.09 Fair CLR 21 6 38% 76.1 0.0
05 15:35 S 24 G 37 16.09 Fair CLR 22 6 36% 76.1 0.0
05 15:15 S 20 G 31 16.09 Fair CLR 22 5 33% 76.12 0.0
05 14:55 S 17 G 31 16.09 Fair CLR 21 3 31% 76.15 0.0
05 14:35 S 19 G 37 16.09 Fair CLR 21 3 31% 76.15 0.0
05 14:15 S 22 G 41 16.09 Fair CLR 21 4 33% 76.17 0.0
05 13:55 S 17 G 30 16.09 Fair CLR 21 7 40% 76.17 0.0
05 13:35 SE 22 16.09 Fair CLR 21 7 40% 76.17 0.0
05 13:15 S 20 16.09 Fair CLR 21 7 40% 76.2 0.0
05 12:55 S 17 16.09 Fair CLR 21 7 40% 76.2 0.0
05 12:35 SW 17 16.09 Fair CLR 21 6 38% 76.23 0.0
05 12:15 SW 11 G 17 16.09 Fair CLR 21 5 35% 76.25 0.0
05 11:55 SW 19 16.09 Fair CLR 20 5 38% 76.25 0.0
05 11:35 W 9 16.09 Fair CLR 20 5 38% 76.28 0.0
05 11:15 SW 11 16.09 Fair CLR 19 5 40% 76.3 0.0
05 10:55 SW 13 16.09 Fair CLR 19 6 43% 76.3 0.0
05 10:35 SW 15 16.09 Fair CLR 18 6 46% 76.28 0.0
05 10:15 SW 13 16.09 Fair CLR 18 5 43% 76.28 0.0
05 09:55 SW 6 16.09 Fair CLR 17 5 45% 76.28 0.0
05 09:35 SW 7 16.09 Fair CLR 17 7 52% 76.28 0.0
05 09:15 SW 9 16.09 Fair CLR 16 6 52% 76.28 0.0
05 08:55 S 7 16.09 Fair CLR 15 6 55% 76.25 0.0
05 08:35 S 7 16.09 Fair CLR 14 6 59% 76.25 0.0
05 08:15 S 6 16.09 Fair CLR 13 6 63% 76.23 0.0
05 07:55 S 6 16.09 Fair CLR 13 6 63% 76.23 0.0
05 07:35 Calm 16.09 Fair CLR 12 5 63% 76.23 0.0
05 07:15 S 6 16.09 Fair CLR 11 5 67% 76.23 0.0
05 06:55 Calm 16.09 Fair CLR 11 5 67% 76.2 0.0
05 06:35 S 6 16.09 Fair CLR 12 5 63% 76.17 0.0
05 06:15 S 7 16.09 Fair CLR 13 5 59% 76.17 0.0
05 05:55 S 9 16.09 Fair CLR 13 5 59% 76.15 0.0
05 05:35 S 7 16.09 Fair CLR 12 5 63% 76.15 0.0
05 05:15 S 9 16.09 Fair CLR 12 5 63% 76.15 0.0
05 04:55 S 9 16.09 Fair CLR 12 5 63% 76.15 0.0
05 04:35 SW 7 16.09 Fair CLR 13 5 59% 76.15 0.0
05 04:15 S 11 16.09 Fair CLR 12 5 63% 76.15 0.0
05 03:55 S 9 16.09 Fair CLR 13 4 55% 76.15 0.0
05 03:35 S 11 16.09 Fair CLR 13 4 55% 76.12 0.0
05 03:15 S 9 16.09 Fair CLR 14 4 51% 76.1 0.0
05 02:55 S 13 16.09 Fair CLR 14 4 51% 76.1 0.0
05 02:35 S 13 16.09 Fair CLR 14 4 51% 76.1 0.0
05 02:15 S 15 16.09 Fair CLR 15 4 48% 76.1 0.0
05 01:55 S 19 16.09 Fair CLR 15 4 48% 76.12 0.0
05 01:35 SW 20 G 28 16.09 Fair CLR 15 4 48% 76.1 0.0
05 01:15 S 17 16.09 Fair CLR 15 4 48% 76.12 0.0
05 00:55 S 15 G 26 16.09 Fair CLR 15 3 45% 76.1 0.0
05 00:35 S 15 16.09 Fair CLR 16 3 42% 76.1 0.0
05 00:15 S 17 16.09 Fair CLR 16 3 42% 76.1 0.0
04 23:55 S 15 G 26 16.09 Fair CLR 16 3 42% 76.12 0.0
04 23:35 S 13 G 26 16.09 Fair CLR 16 3 42% 76.12 0.0
04 23:15 S 13 16.09 Fair CLR 16 3 42% 76.15 0.0
04 22:55 S 9 16.09 Fair CLR 16 4 45% 76.15 0.0
04 22:35 S 11 16.09 Fair CLR 16 5 48% 76.15 0.0
04 22:15 S 7 16.09 Fair CLR 16 5 48% 76.15 0.0
04 21:55 S 13 16.09 Fair CLR 17 5 45% 76.15 0.0
04 21:35 S 11 16.09 Fair CLR 17 5 45% 76.15 0.0
04 21:15 S 11 16.09 Fair CLR 17 6 49% 76.12 0.0
04 20:55 S 11 16.09 Fair CLR 17 6 49% 76.12 0.0
04 20:35 S 13 16.09 Fair CLR 17 6 49% 76.1 0.0
04 20:15 S 11 16.09 Fair CLR 18 6 46% 76.1 0.0
04 19:55 S 13 G 26 16.09 Fair CLR 19 6 43% 76.1 0.0
04 19:35 S 9 16.09 Fair CLR 19 6 43% 76.07 0.0
04 19:15 S 11 16.09 Fair CLR 20 6 40% 76.07 0.0
04 18:55 S 13 16.09 Partly Cloudy SCT080 SCT090 20 6 40% 76.07 0.0
04 18:35 SW 20 G 28 16.09 Partly Cloudy SCT070 SCT090 21 6 38% 76.07 0.0
04 18:15 S 13 G 26 16.09 Partly Cloudy SCT070 21 7 40% 76.05 0.0
04 17:35 SW 20 16.09 Partly Cloudy SCT070 SCT075 22 7 38% 76.07 0.0
04 17:15 W 19 G 28 16.09 Mostly Cloudy BKN060 BKN080 21 7 40% 76.07 0.0
04 16:55 SW 19 G 26 16.09 Mostly Cloudy BKN060 21 6 38% 76.07 0.0
04 16:35 SW 17 G 33 16.09 Partly Cloudy SCT060 SCT075 SCT090 21 7 40% 76.07 0.0
04 16:15 SW 15 16.09 Partly Cloudy SCT070 SCT090 21 7 40% 76.1 0.0
04 15:55 SW 15 G 28 16.09 Partly Cloudy SCT060 SCT070 SCT090 21 8 43% 76.1 0.0
04 15:35 SW 13 16.09 Mostly Cloudy BKN070 21 8 43% 76.12 0.0
04 15:15 SW 22 16.09 Mostly Cloudy SCT050 BKN070 20 8 46% 76.15 0.0
04 14:55 SW 13 16.09 Mostly Cloudy SCT050 BKN070 BKN080 19 8 49% 76.15 0.0
04 14:35 W 17 16.09 Overcast SCT050 SCT060 OVC080 19 7 46% 76.17 0.0
04 14:15 NW 24 16.09 Overcast SCT060 OVC080 18 7 49% 76.17 0.0
04 13:55 W 17 G 33 16.09 Overcast SCT055 BKN070 OVC080 18 6 46% 76.2 0.0
04 13:35 W 20 G 37 16.09 Partly Cloudy SCT055 SCT070 18 6 46% 76.2 0.0
04 13:15 W 20 G 28 16.09 Fair CLR 18 7 49% 76.2 0.0
04 12:55 NW 15 G 26 16.09 Fair CLR 18 6 46% 76.2 0.0
04 12:35 W 17 G 26 16.09 Partly Cloudy SCT048 18 7 49% 76.23 0.0
04 12:15 W 17 G 26 16.09 Fair CLR 17 6 49% 76.28 0.0
04 11:55 SW 15 16.09 Fair CLR 16 6 52% 76.28 0.0
04 11:35 W 15 16.09 Fair CLR 16 6 52% 76.28 0.0
04 11:15 W 15 G 26 16.09 Partly Cloudy SCT080 SCT120 15 5 51% 76.28 0.0
04 10:55 W 15 G 35 16.09 Mostly Cloudy SCT043 SCT065 BKN080 14 4 51% 76.28 0.0
04 10:35 W 28 G 35 16.09 Fair CLR 15 3 45% 76.3 0.0
04 10:15 W 11 16.09 Mostly Cloudy BKN065 13 2 47% 76.33 0.0
04 09:55 W 11 16.09 Overcast OVC065 12 2 51% 76.33 0.0
04 09:35 SW 11 16.09 Overcast OVC065 11 3 58% 76.33 0.0
04 09:15 SW 15 16.09 Overcast BKN070 OVC075 11 2 54% 76.33 0.0
04 08:55 SW 11 16.09 Overcast OVC070 11 3 58% 76.28 0.0
04 08:35 SW 15 16.09 Overcast SCT075 OVC080 11 2 54% 76.28 0.0
04 08:15 SW 11 16.09 Overcast OVC090 10 2 58% 9 76.25 0.0
04 07:55 SW 11 16.09 Partly Cloudy SCT090 9 2 62% 8 76.25 0.0
04 07:35 SW 11 16.09 Partly Cloudy SCT080 SCT090 8 0 57% 6 76.25 0.0
04 07:15 SW 9 16.09 Overcast SCT080 OVC100 8 0 57% 7 76.25 0.0
04 06:55 SW 7 16.09 Overcast OVC100 8 0 57% 7 76.25 0.0
04 06:35 SW 9 16.09 Overcast OVC100 7 0 61% 5 76.25 0.0
04 06:15 SW 9 16.09 Overcast OVC100 7 0 61% 5 76.25 0.0
04 05:55 SW 6 16.09 Overcast OVC100 7 0 61% 76.25 0.0
04 05:35 SW 7 16.09 Overcast OVC100 7 0 61% 6 76.25 0.0
04 05:15 SW 6 16.09 Overcast OVC110 7 0 61% 76.28 0.0
04 04:55 SW 9 16.09 Mostly Cloudy BKN120 7 0 61% 5 76.28 0.0
04 04:35 SW 6 16.09 Mostly Cloudy BKN110 7 -1 57% 76.25 0.0
04 04:15 S 7 16.09 Overcast OVC110 8 -1 53% 7 76.25 0.0
04 03:55 SW 6 16.09 Overcast OVC110 8 -1 53% 76.25 0.0
04 03:35 S 7 16.09 Overcast OVC110 8 -1 53% 7 76.28 0.0
04 03:15 S 6 16.09 Overcast OVC110 7 -1 57% 76.28 0.0
04 02:55 S 6 16.09 Overcast OVC110 7 -1 57% 76.28 0.0
04 02:35 S 9 16.09 Overcast OVC110 8 -1 53% 7 76.28 0.0
04 02:15 SW 6 16.09 Overcast OVC110 7 -2 53% 76.3 0.0
04 01:55 Calm 16.09 Overcast OVC110 7 -2 53% 76.28 0.0
04 01:35 Calm 16.09 Mostly Cloudy BKN100 BKN120 8 -2 50% 76.28 0.0
04 01:15 SW 9 16.09 Partly Cloudy SCT100 SCT120 8 -2 50% 7 76.3 0.0
04 00:55 SW 9 16.09 Partly Cloudy SCT100 7 -2 53% 5 76.28 0.0
04 00:35 S 9 16.09 Partly Cloudy SCT120 8 -2 50% 7 76.28 0.0
04 00:15 S 9 16.09 Partly Cloudy SCT120 8 -2 50% 7 76.28 0.0
03 23:55 S 6 16.09 Partly Cloudy SCT120 8 -2 50% 76.28 0.0
03 23:35 S 6 16.09 Partly Cloudy SCT120 8 -2 50% 76.3 0.0
03 23:15 SE 7 16.09 Fair CLR 8 -2 50% 7 76.28 0.0
03 22:55 SW 6 16.09 Fair CLR 10 -3 40% 76.28 0.0
03 22:35 SW 9 16.09 Fair CLR 10 -3 40% 9 76.28 0.0
03 22:15 W 9 16.09 Fair CLR 10 -3 40% 9 76.3 0.0
03 21:55 S 7 16.09 Fair CLR 10 -3 40% 9 76.25 0.0
03 21:35 W 7 16.09 Fair CLR 11 -4 35% 76.28 0.0
03 21:15 W 6 16.09 Fair CLR 11 -4 35% 76.25 0.0
03 20:55 W 6 16.09 Fair CLR 11 -3 38% 76.23 0.0
03 20:35 W 6 16.09 Fair CLR 11 -3 38% 76.23 0.0
03 20:15 W 6 16.09 Fair CLR 12 -3 35% 76.2 0.0
03 19:55 NW 11 16.09 Fair CLR 13 -4 31% 76.2 0.0
03 19:35 NW 15 16.09 Fair CLR 13 -4 31% 76.2 0.0
03 19:15 W 13 16.09 Fair CLR 14 -5 27% 76.17 0.0
03 18:55 W 15 16.09 Fair CLR 15 -4 27% 76.17 0.0
03 18:35 NW 15 16.09 Fair CLR 15 -5 25% 76.17 0.0
03 18:15 W 15 G 28 16.09 Fair CLR 15 -6 23% 76.2 0.0
03 17:55 W 7 16.09 Fair CLR 15 -5 25% 76.2 0.0
03 17:35 W 19 G 30 16.09 Fair CLR 15 -5 25% 76.2 0.0
03 17:15 W 15 16.09 Fair CLR 15 -4 27% 76.23 0.0
03 16:55 W 17 G 30 16.09 Fair CLR 15 -5 25% 76.23 0.0
03 16:35 NW 15 16.09 Fair CLR 15 -5 25% 76.23 0.0
03 16:15 NW 22 G 28 16.09 Fair CLR 15 -6 23% 76.25 0.0
03 15:55 W 24 G 30 16.09 Fair CLR 13 -6 26% 76.28 0.0
03 15:35 NW 15 G 30 16.09 Fair CLR 13 -6 26% 76.3 0.0
03 14:55 NW 17 G 31 16.09 Fair CLR 12 -7 26% 76.33 0.0
03 14:35 NW 17 G 26 16.09 Fair CLR 13 -6 26% 76.33 0.0
03 14:15 NW 17 G 28 16.09 Fair CLR 12 -6 28% 76.38 0.0
03 13:55 N 20 G 28 16.09 Fair CLR 12 -5 30% 76.38 0.0
03 13:35 N 6 16.09 Fair CLR 11 -5 32% 76.38 0.0
03 13:15 NW 19 G 30 16.09 Fair CLR 11 -6 30% 76.4 0.0
03 12:55 NW 22 G 28 16.09 Fair CLR 10 -7 30% 7 76.4 0.0
03 12:35 Calm 16.09 Fair CLR 10 -6 32% 76.43 0.0
03 12:15 NW 13 G 30 16.09 Fair CLR 9 -7 32% 7 76.45 0.0
03 11:55 NW 20 G 26 16.09 Fair CLR 9 -7 32% 6 76.45 0.0
03 11:35 N 15 G 26 16.09 Fair CLR 8 -6 37% 6 76.45 0.0
03 11:15 NW 13 16.09 Fair CLR 8 -6 37% 6 76.45 0.0
03 10:55 NW 20 G 28 16.09 Fair CLR 7 -7 37% 4 76.45 0.0
03 10:35 N 24 G 39 16.09 Fair CLR 7 -6 39% 4 76.45 0.0
03 10:15 NW 26 G 31 16.09 Fair CLR 6 -6 42% 2 76.45 0.0
03 09:55 NW 22 G 37 16.09 Fair CLR 6 -6 42% 2 76.45 0.0
03 09:35 NW 28 G 39 16.09 Fair CLR 6 -5 46% 2 76.43 0.0
03 09:15 NW 20 G 28 16.09 Fair CLR 5 -5 49% 1 76.43 0.0
03 08:55 NW 22 G 31 16.09 Fair CLR 5 -5 49% 1 76.43 0.0
03 08:35 NW 20 G 33 16.09 Fair CLR 4 -4 56% 0 76.43 0.0
03 08:15 NW 17 16.09 Fair CLR 4 -2 65% 1 76.4 0.0
03 07:55 NW 17 16.09 Fair CLR 3 -2 70% -1 76.38 0.0
03 07:35 NW 15 16.09 Fair CLR 3 -2 70% -0 76.38 0.0
03 07:15 NW 13 16.09 Fair CLR 2 -2 75% -1 76.35 0.0
03 06:55 W 13 16.09 Fair CLR 2 -1 81% -1 76.33 0.0
03 06:35 NW 17 16.09 Fair CLR 2 -1 81% -2 76.28 0.0
03 06:15 NW 15 16.09 Fair CLR 2 -1 81% -2 76.28 0.0
03 05:55 NW 11 16.09 Fair CLR 2 -1 81% -1 76.28 0.0
03 05:35 W 6 16.09 Fair CLR 2 -1 81% 76.25 0.0
03 05:15 SW 7 16.09 Fair CLR 2 -1 81% 0 76.25 0.0
03 04:55 W 6 16.09 Fair CLR 2 -1 81% 76.23 0.0
03 04:35 SW 7 16.09 Fair CLR 2 -1 81% 0 76.23 0.0
03 04:15 SW 7 16.09 Fair CLR 2 -1 81% 0 76.2 0.0
03 03:55 Calm 16.09 Fair CLR 3 -1 75% 76.2 0.0
03 03:35 Calm 16.09 Fair CLR 4 -1 70% 76.2 0.0
03 03:15 NW 11 16.09 Fair CLR 4 -1 70% 2 76.15 0.0
03 02:55 NW 11 16.09 Fair CLR 4 -1 70% 2 76.15 0.0
03 02:35 NW 13 16.09 Fair CLR 5 -1 66% 2 76.15 0.0
03 02:15 NW 13 16.09 Fair CLR 5 -1 66% 2 76.15 0.0
03 01:55 NW 13 16.09 Fair CLR 5 -1 66% 2 76.15 0.0
03 01:35 NW 17 16.09 Fair CLR 5 -2 61% 2 76.15 0.0
03 01:15 NW 15 16.09 Fair CLR 5 -1 66% 2 76.15 0.0
03 00:55 NW 15 16.09 Fair CLR 5 -2 61% 2 76.15 0.0
03 00:35 NW 15 16.09 Fair CLR 5 -2 61% 2 76.15 0.0
03 00:15 NW 15 16.09 Fair CLR 6 -2 57% 3 76.15 0.0
02 23:55 NW 13 16.09 Fair CLR 6 -1 61% 4 76.12 0.0
02 23:35 NW 15 16.09 Fair CLR 6 -1 61% 3 76.12 0.0
02 23:15 NW 17 16.09 Fair CLR 6 -1 61% 3 76.12 0.0
02 22:55 NW 17 16.09 Fair CLR 6 -1 61% 3 76.1 0.0
02 22:35 NW 19 G 26 16.09 Fair CLR 7 -1 57% 4 76.1 0.0
02 22:15 NW 11 16.09 Fair CLR 7 -2 53% 5 76.1 0.0
02 21:55 NW 17 16.09 Fair CLR 7 -2 53% 4 76.1 0.0
02 21:35 NW 13 16.09 Fair CLR 7 -1 57% 5 76.1 0.0
Date Time (edt) Wind (kph) Vis. (km) Weather Sky Cond. Air Dwpt Max. Min. Relative Humidity Wind Chill (°C) Heat Index (°C) altimeter (cm) sea level (mb) 1 hr 3 hr 6 hr
6 hour
Temperature (ºC) Pressure Precipitation (cm)